User: anonymous   Login
Location: Boullarre
(49.1305°N, 3.0047°E)
Time: 21:52:35
(UTC+00:00)
Language:

ISS - Orbit

View from above orbital plane
View from above orbital plane
View from above satellite
View from above satellite

Ground track
Ground track

The orbit data is extracted from the following two-line orbital elements,

1 25544U 98067A   24288.51761528  .00017802  00000-0  32061-3 0  9992
2 25544  51.6401  84.3419 0009014  69.8722  38.2029 15.49840441477053
Epoch (UTC): 14 October 2024 12:25:21
Eccentricity: 0.0009014
inclination: 51.6401°
perigee height: 411 km
apogee height: 423 km
right ascension of ascending node: 84.3419°
argument of perigee: 69.8722°
revolutions per day: 15.49840441
mean anomaly at epoch: 38.2029°
orbit number at epoch: 47705

The dashed part of the orbit path shows where the satellite is in the earth's shadow,  

DLR